TimePST,TemperatureF,Dew PointF,Humidity,Sea Level PressureIn,VisibilityMPH,Wind Direction,Wind SpeedMPH,Gust SpeedMPH,PrecipitationIn,Events,Conditions,WindDirDegrees,DateUTC
12:00 AM,47.5,37.6,69,30.21,-9999.0,West,23.0,-,N/A,,Unknown,260,2013-02-13 08:00:00
1:00 AM,44.1,41.4,90,30.25,-9999.0,West,9.2,-,N/A,,Unknown,280,2013-02-13 09:00:00
2:00 AM,44.8,41.7,89,30.26,-9999.0,West,10.4,-,N/A,,Unknown,270,2013-02-13 10:00:00
3:00 AM,45.7,36.9,71,30.26,-9999.0,WSW,19.6,-,N/A,,Unknown,240,2013-02-13 11:00:00
4:00 AM,45,38,68,30.27,,WSW,18.4,,,,,250,2013-02-13 12:00:00
4:00 AM,45.1,37.8,75,30.27,-9999.0,WSW,18.4,-,N/A,,Unknown,250,2013-02-13 12:00:00
5:00 AM,43.9,40.6,88,30.30,-9999.0,NNW,5.8,-,N/A,,Unknown,340,2013-02-13 13:00:00
6:00 AM,43.5,39.7,87,30.31,-9999.0,WSW,13.8,-,N/A,,Unknown,250,2013-02-13 14:00:00
7:00 AM,43.5,39.2,85,30.32,-9999.0,WNW,6.9,-,N/A,,Unknown,300,2013-02-13 15:00:00
8:00 AM,43.7,38.8,83,30.35,-9999.0,NW,6.9,-,N/A,,Unknown,310,2013-02-13 16:00:00
9:00 AM,43.9,39.2,84,30.36,-9999.0,NNW,6.9,-,N/A,,Unknown,340,2013-02-13 17:00:00
10:00 AM,44,39,77,30.38,,NW,4.6,,,,,310,2013-02-13 18:00:00
10:00 AM,44.2,39.2,82,30.38,-9999.0,NW,4.6,-,N/A,,Unknown,310,2013-02-13 18:00:00
11:00 AM,44.8,39.6,82,30.39,-9999.0,WNW,6.9,-,N/A,,Unknown,300,2013-02-13 19:00:00
12:00 PM,45.0,39.4,81,30.40,-9999.0,NW,6.9,-,N/A,,Unknown,310,2013-02-13 20:00:00
1:00 PM,45.3,37.6,74,30.40,-9999.0,North,8.1,-,N/A,,Unknown,10,2013-02-13 21:00:00
2:00 PM,47.7,38.3,70,30.39,-9999.0,NNW,6.9,-,N/A,,Unknown,340,2013-02-13 22:00:00
3:00 PM,45.0,38.7,79,30.38,-9999.0,NNE,4.6,-,N/A,,Unknown,20,2013-02-13 23:00:00
4:00 PM,45,39,72,30.40,,NNE,5.8,,,,,20,2013-02-14 00:00:00
4:00 PM,45.0,39.0,80,30.40,-9999.0,NNE,5.8,-,N/A,,Unknown,20,2013-02-14 00:00:00
5:00 PM,45.7,37.2,72,30.39,-9999.0,WNW,2.3,-,N/A,,Unknown,300,2013-02-14 01:00:00
6:00 PM,45.5,37.0,72,30.40,-9999.0,West,12.7,-,N/A,,Unknown,270,2013-02-14 02:00:00
7:00 PM,45.1,37.9,76,30.41,-9999.0,WSW,6.9,-,N/A,,Unknown,250,2013-02-14 03:00:00
8:00 PM,44.4,39.2,82,30.42,-9999.0,WNW,2.3,-,N/A,,Unknown,290,2013-02-14 04:00:00
9:00 PM,44.2,39.4,83,30.43,-9999.0,West,5.8,-,N/A,,Unknown,270,2013-02-14 05:00:00
10:00 PM,45,37,66,30.43,,SSW,3.5,,,,,200,2013-02-14 06:00:00
10:00 PM,45.1,37.2,74,30.43,-9999.0,SSW,3.5,-,N/A,,Unknown,200,2013-02-14 06:00:00
11:00 PM,44.1,38.3,80,30.43,-9999.0,ESE,4.6,-,N/A,,Unknown,120,2013-02-14 07:00:00